Location: Central Coast
(33.3208°S, 151.2336°E)
Time: 11:41:18
(UTC+11:00)

Tiangong 1 - Pass Details

Date: 11 October 2017
Orbit: 292 x 320 km, 42.8° (Epoch: 21 October)

Event Time Altitude Azimuth Distance (km) Brightness Sun altitude
Exits shadow 05:00:06 45° 208° (SSW) 430 1.2 -16.9°
Maximum altitude 05:00:07 45° 206° (SSW) 430 1.2 -16.9°
Drops below altitude 10° 05:02:43 10° 131° (SE) 1,195 4.7 -16.4°
Sets 05:04:45 0° 124° (ESE) 2,032 6.3 -16.0°
